LRTR Weather Reports


time (UTC)temp
C
wind
direction
speed
KPH
gust
KPH
rain 1hr
cm
rain 24hr
cm
rain mn
cm
humidity
%
barometer
mb
20260503193419 10 330 8.0 0.0 0.00 0.00 0.00 58 1019.0
20260503191805 12 320 9.7 0.0 0.00 0.00 0.00 51 1019.0
20260503190305 12 320 9.7 0.0 0.00 0.00 0.00 51 1019.0
20260503184919 13 320 11.3 0.0 0.00 0.00 0.00 48 1019.0
20260503183304 13 320 11.3 0.0 0.00 0.00 0.00 48 1019.0
20260503181805 13 300 9.7 0.0 0.00 0.00 0.00 48 1018.0
20260503180304 13 300 9.7 0.0 0.00 0.00 0.00 48 1018.0
20260503174825 16 280 9.7 0.0 0.00 0.00 0.00 42 1018.0
20260503173329 16 280 9.7 0.0 0.00 0.00 0.00 42 1018.0
20260503171805 17 280 11.3 0.0 0.00 0.00 0.00 39 1018.0
20260503170305 17 280 11.3 0.0 0.00 0.00 0.00 39 1018.0
20260503150305 20 8.0 0.0 0.00 0.00 0.00 28 1019.0
20260503140312 18 320 12.9 0.0 0.00 0.00 0.00 28 1019.0
20260503130305 17 4.8 0.0 0.00 0.00 0.00 32 1020.0
20260503110325 17 150 9.7 0.0 0.00 0.00 0.00 37 1021.0
20260503090326 16 8.0 0.0 0.00 0.00 0.00 45 1023.0
20260503080315 13 4.8 0.0 0.00 0.00 0.00 48 1023.0
20260503071807 12 3.2 0.0 0.00 0.00 0.00 58 1023.0
20260503070306 12 3.2 0.0 0.00 0.00 0.00 58 1023.0
20260503060305 10 80 4.8 0.0 0.00 0.00 0.00 67 1023.0
20260503054805 8 70 4.8 0.0 0.00 0.00 0.00 71 1022.0
20260503053305 8 70 4.8 0.0 0.00 0.00 0.00 71 1022.0
20260503051805 7 10 3.2 0.0 0.00 0.00 0.00 87 1022.0
20260503050306 7 10 3.2 0.0 0.00 0.00 0.00 87 1022.0
20260503044805 5 1.6 0.0 0.00 0.00 0.00 87 1022.0
20260503043306 5 1.6 0.0 0.00 0.00 0.00 87 1022.0
20260503041805 2 130 4.8 0.0 0.00 0.00 0.00 93 1022.0
20260503040328 2 130 4.8 0.0 0.00 0.00 0.00 93 1022.0
20260503034807 5 120 4.8 0.0 0.00 0.00 0.00 87 1021.0
20260503033305 5 120 4.8 0.0 0.00 0.00 0.00 87 1021.0
20260503031805 6 120 9.7 0.0 0.00 0.00 0.00 81 1021.0
20260503030305 6 120 9.7 0.0 0.00 0.00 0.00 81 1021.0
20260503024820 3 110 8.0 0.0 0.00 0.00 0.00 87 1021.0
20260503023305 3 110 8.0 0.0 0.00 0.00 0.00 87 1021.0
20260503021805 5 0 0.0 0.0 0.00 0.00 0.00 81 1021.0
20260503020305 5 0 0.0 0.0 0.00 0.00 0.00 81 1021.0
20260503014805 5 0 0.0 0.0 0.00 0.00 0.00 81 1021.0
20260503013305 5 0 0.0 0.0 0.00 0.00 0.00 81 1021.0
20260503011805 5 130 9.7 0.0 0.00 0.00 0.00 81 1021.0
20260503010305 5 130 9.7 0.0 0.00 0.00 0.00 81 1021.0
20260503004805 5 3.2 0.0 0.00 0.00 0.00 76 1021.0
20260503003305 5 3.2 0.0 0.00 0.00 0.00 76 1021.0
20260503001805 5 100 9.7 0.0 0.00 0.00 0.00 76 1021.0
20260503000305 5 100 9.7 0.0 0.00 0.00 0.00 76 1021.0
20260502234805 6 130 9.7 0.0 0.00 0.00 0.00 71 1020.0
20260502233305 6 130 9.7 0.0 0.00 0.00 0.00 71 1020.0
20260502231805 5 70 4.8 0.0 0.00 0.00 0.00 81 1020.0
20260502230305 5 70 4.8 0.0 0.00 0.00 0.00 81 1020.0
20260502224805 6 50 8.0 0.0 0.00 0.00 0.00 76 1020.0
20260502223304 6 50 8.0 0.0 0.00 0.00 0.00 76 1020.0
20260502221805 5 40 9.7 0.0 0.00 0.00 0.00 81 1020.0
20260502220305 5 40 9.7 0.0 0.00 0.00 0.00 81 1020.0
20260502214805 6 70 11.3 0.0 0.00 0.00 0.00 76 1020.0
20260502213305 6 70 11.3 0.0 0.00 0.00 0.00 76 1020.0
20260502211805 7 70 14.5 0.0 0.00 0.00 0.00 71 1020.0
20260502210305 7 70 14.5 0.0 0.00 0.00 0.00 71 1020.0
20260502204805 7 60 11.3 0.0 0.00 0.00 0.00 76 1020.0
20260502203305 7 60 11.3 0.0 0.00 0.00 0.00 76 1020.0
20260502201805 7 80 14.5 0.0 0.00 0.00 0.00 71 1020.0
20260502200305 7 80 14.5 0.0 0.00 0.00 0.00 71 1020.0
20260502194805 8 70 11.3 0.0 0.00 0.00 0.00 71 1020.0